AUA973 LOWW-BIKF

Flight info

Callsign AUA973
Flight time 3h 53m
Altitude 38000
Route BUWU1D BUWUT DCT DITIS DCT APRAQ DCT BALTU DCT VEXIL DCT KUMER DCT BADOS DCT DOSUR DCT BAVTA P992 LINVI DCT VALDI DCT ING DCT NASBU NASB4K
Aircraft A20N/M-SDE2E3FGHIRWXY/LB1

Departure

Time 2026-04-20 23:57
Airport Vienna International Airport (LOWW)

Arrival

Time 2026-04-21 03:50
Airport Keflavik International Airport (BIKF)
Time Latitude Longitude Altitude Speed Heading
2026-04-20 23:25 48.11974 16.55842 620 ft 0 kts 294°
2026-04-20 23:39 48.11969 16.55859 627 ft 2 kts 294°
2026-04-20 23:39 48.11962 16.55881 609 ft 2 kts 293°
2026-04-20 23:40 48.11956 16.55904 625 ft 2 kts 290°
2026-04-20 23:40 48.11951 16.55928 621 ft 2 kts 271°
2026-04-20 23:40 48.11957 16.55946 625 ft 1 kts 207°
2026-04-20 23:40 48.11959 16.55948 625 ft 0 kts 206°
2026-04-20 23:45 48.11958 16.55947 625 ft 1 kts 206°
2026-04-20 23:46 48.11943 16.55936 623 ft 4 kts 206°
2026-04-20 23:46 48.11913 16.55914 621 ft 6 kts 206°
2026-04-20 23:46 48.11866 16.55879 615 ft 9 kts 206°
2026-04-20 23:46 48.11806 16.55835 614 ft 11 kts 206°
2026-04-20 23:47 48.11728 16.55786 612 ft 13 kts 193°
2026-04-20 23:47 48.11671 16.55859 621 ft 12 kts 114°
2026-04-20 23:47 48.11631 16.55982 610 ft 14 kts 117°
2026-04-20 23:47 48.11585 16.56120 616 ft 16 kts 115°
2026-04-20 23:48 48.11536 16.56276 614 ft 17 kts 115°
2026-04-20 23:48 48.11480 16.56442 616 ft 19 kts 116°
2026-04-20 23:48 48.11421 16.56622 614 ft 20 kts 116°
2026-04-20 23:48 48.11358 16.56811 617 ft 21 kts 116°
2026-04-20 23:49 48.11294 16.57015 621 ft 22 kts 116°
2026-04-20 23:49 48.11226 16.57224 620 ft 23 kts 116°
2026-04-20 23:49 48.11154 16.57442 621 ft 24 kts 115°
2026-04-20 23:49 48.11083 16.57665 623 ft 24 kts 116°
2026-04-20 23:50 48.10999 16.57814 609 ft 18 kts 160°
2026-04-20 23:50 48.10872 16.57866 617 ft 20 kts 164°
2026-04-20 23:50 48.10735 16.57925 617 ft 21 kts 164°
2026-04-20 23:50 48.10590 16.57988 616 ft 22 kts 165°
2026-04-20 23:51 48.10438 16.58050 618 ft 23 kts 165°
2026-04-20 23:51 48.10278 16.58118 619 ft 24 kts 165°
2026-04-20 23:51 48.10112 16.58188 607 ft 25 kts 164°
2026-04-20 23:51 48.09942 16.58260 618 ft 26 kts 164°
2026-04-20 23:52 48.09765 16.58333 609 ft 27 kts 165°
2026-04-20 23:52 48.09583 16.58411 622 ft 28 kts 164°
2026-04-20 23:52 48.09397 16.58490 612 ft 27 kts 165°
2026-04-20 23:52 48.09243 16.58556 615 ft 21 kts 164°
2026-04-20 23:53 48.09097 16.58617 612 ft 22 kts 164°
2026-04-20 23:53 48.08955 16.58677 609 ft 15 kts 164°
2026-04-20 23:53 48.08870 16.58715 611 ft 12 kts 159°
2026-04-20 23:53 48.08805 16.58806 619 ft 14 kts 118°
2026-04-20 23:54 48.08791 16.58931 614 ft 7 kts 79°
2026-04-20 23:54 48.08792 16.58937 616 ft 0 kts 76°
2026-04-20 23:54 48.08793 16.58940 617 ft 1 kts 76°
2026-04-20 23:55 48.08799 16.58973 621 ft 6 kts 70°
2026-04-20 23:55 48.08830 16.59043 614 ft 11 kts 47°
2026-04-20 23:55 48.08907 16.59103 613 ft 14 kts 12°
2026-04-20 23:55 48.08996 16.59078 618 ft 14 kts 343°
2026-04-20 23:56 48.09066 16.59048 616 ft 22 kts 344°
2026-04-20 23:56 48.09404 16.58907 619 ft 82 kts 344°
2026-04-20 23:56 48.10143 16.58593 621 ft 135 kts 344°
2026-04-20 23:56 48.11161 16.58158 802 ft 160 kts 344°
2026-04-20 23:57 48.12259 16.57704 1295 ft 168 kts 345°
2026-04-20 23:57 48.13417 16.57395 1960 ft 168 kts
2026-04-20 23:57 48.14491 16.57949 2708 ft 168 kts 27°
2026-04-20 23:57 48.15547 16.58892 3038 ft 186 kts 27°
2026-04-20 23:58 48.16713 16.59946 3414 ft 204 kts 27°
2026-04-20 23:58 48.17961 16.61078 4016 ft 213 kts 28°
2026-04-20 23:58 48.19255 16.62251 4728 ft 221 kts 28°
2026-04-20 23:58 48.20633 16.63499 5185 ft 242 kts 28°
2026-04-20 23:59 48.22009 16.64743 5578 ft 261 kts 28°
2026-04-20 23:59 48.23714 16.65704 6223 ft 263 kts
2026-04-20 23:59 48.25507 16.65389 7030 ft 259 kts 336°
2026-04-20 23:59 48.27093 16.64105 7876 ft 259 kts 327°
2026-04-21 00:00 48.28649 16.62720 8732 ft 261 kts 327°
2026-04-21 00:00 48.30216 16.61324 9590 ft 263 kts 327°
2026-04-21 00:00 48.31801 16.59914 10357 ft 269 kts 327°
2026-04-21 00:00 48.33475 16.58423 10598 ft 292 kts 327°
2026-04-21 00:01 48.35286 16.56813 10846 ft 312 kts 327°
2026-04-21 00:01 48.37158 16.55155 11493 ft 317 kts 327°
2026-04-21 00:01 48.39063 16.53471 12286 ft 319 kts 327°
2026-04-21 00:01 48.40991 16.51762 13020 ft 323 kts 327°
2026-04-21 00:02 48.42940 16.50032 13770 ft 326 kts 328°
2026-04-21 00:02 48.44851 16.48172 14410 ft 328 kts 320°
2026-04-21 00:02 48.46454 16.45766 15019 ft 330 kts 307°
2026-04-21 00:02 48.47676 16.42825 15657 ft 333 kts 296°
2026-04-21 00:03 48.48707 16.39630 16303 ft 336 kts 296°
2026-04-21 00:03 48.49734 16.36486 16920 ft 340 kts 296°
2026-04-21 00:03 48.50787 16.33277 17547 ft 343 kts 296°
2026-04-21 00:03 48.51849 16.30041 18178 ft 346 kts 296°
2026-04-21 00:04 48.52920 16.26771 18729 ft 349 kts 296°
2026-04-21 00:04 48.53995 16.23482 19306 ft 350 kts 296°
2026-04-21 00:04 48.55079 16.20157 19875 ft 352 kts 296°
2026-04-21 00:04 48.56162 16.16830 20423 ft 354 kts 296°
2026-04-21 00:05 48.57241 16.13513 20937 ft 357 kts 296°
2026-04-21 00:05 48.58305 16.10105 21456 ft 360 kts 295°
2026-04-21 00:05 48.59304 16.06612 21978 ft 363 kts 294°
2026-04-21 00:05 48.60292 16.03075 22487 ft 366 kts 294°
2026-04-21 00:06 48.61287 15.99521 22986 ft 369 kts 294°
2026-04-21 00:06 48.62297 15.95943 23475 ft 372 kts 294°
2026-04-21 00:06 48.63325 15.92324 23930 ft 374 kts 294°
2026-04-21 00:06 48.64353 15.88711 24363 ft 376 kts 294°
2026-04-21 00:07 48.65388 15.85074 24559 ft 385 kts 294°
2026-04-21 00:07 48.66447 15.81346 24972 ft 386 kts 295°
2026-04-21 00:07 48.67507 15.77604 25397 ft 387 kts 295°
2026-04-21 00:07 48.68570 15.73851 25782 ft 389 kts 295°
2026-04-21 00:08 48.69639 15.70073 26165 ft 392 kts 295°
2026-04-21 00:08 48.70714 15.66268 26548 ft 394 kts 295°
2026-04-21 00:08 48.71795 15.62436 26915 ft 396 kts 295°
2026-04-21 00:08 48.72875 15.58599 27266 ft 398 kts 294°
2026-04-21 00:09 48.73962 15.54737 27619 ft 400 kts 294°
2026-04-21 00:09 48.75041 15.50892 27963 ft 402 kts 294°
2026-04-21 00:09 48.76152 15.46924 28295 ft 404 kts 294°
2026-04-21 00:09 48.77251 15.42996 28591 ft 406 kts 294°
2026-04-21 00:10 48.78352 15.39046 28917 ft 407 kts 294°
2026-04-21 00:10 48.79445 15.35128 29217 ft 409 kts 295°
2026-04-21 00:10 48.80709 15.31250 29515 ft 410 kts 301°
2026-04-21 00:10 48.82254 15.27602 29806 ft 411 kts 306°
2026-04-21 00:11 48.83942 15.24080 30090 ft 413 kts 306°
2026-04-21 00:11 48.85631 15.20513 30335 ft 415 kts 306°
2026-04-21 00:11 48.87314 15.16942 30568 ft 417 kts 306°
2026-04-21 00:11 48.89057 15.13415 30795 ft 419 kts 310°
2026-04-21 00:12 48.91040 15.10154 31023 ft 421 kts 315°
2026-04-21 00:12 48.93240 15.07196 31245 ft 423 kts 319°
2026-04-21 00:12 48.95455 15.04333 31518 ft 424 kts 318°
2026-04-21 00:12 48.97695 15.01411 31821 ft 423 kts 318°
2026-04-21 00:13 48.99927 14.98491 32103 ft 425 kts 319°
2026-04-21 00:13 49.02184 14.95537 32249 ft 428 kts 319°
2026-04-21 00:13 49.04435 14.92592 32536 ft 427 kts 319°
2026-04-21 00:13 49.06701 14.89627 32829 ft 427 kts 319°
2026-04-21 00:14 49.08960 14.86668 33108 ft 427 kts 318°
2026-04-21 00:14 49.11212 14.83715 33383 ft 427 kts 318°
2026-04-21 00:14 49.13465 14.80755 33645 ft 427 kts 318°
2026-04-21 00:14 49.15718 14.77793 33900 ft 426 kts 318°
2026-04-21 00:15 49.17940 14.74867 34130 ft 426 kts 318°
2026-04-21 00:15 49.20184 14.71910 34360 ft 425 kts 318°
2026-04-21 00:15 49.22431 14.68944 34546 ft 425 kts 317°
2026-04-21 00:15 49.24675 14.65978 34723 ft 426 kts 317°
2026-04-21 00:16 49.26917 14.63011 34902 ft 426 kts 318°
2026-04-21 00:16 49.31428 14.57028 35156 ft 429 kts 318°
2026-04-21 00:16 49.33684 14.54032 35331 ft 429 kts 318°
2026-04-21 00:17 49.35944 14.51028 35510 ft 429 kts 318°
2026-04-21 00:17 49.38171 14.48062 35668 ft 429 kts 318°
2026-04-21 00:17 49.40418 14.45067 35827 ft 429 kts 318°
2026-04-21 00:17 49.42677 14.42051 35972 ft 429 kts 318°
2026-04-21 00:18 49.44933 14.39035 36077 ft 430 kts 318°
2026-04-21 00:18 49.47193 14.36011 36229 ft 430 kts 318°
2026-04-21 00:18 49.49453 14.32983 36366 ft 430 kts 317°
2026-04-21 00:18 49.51708 14.29956 36510 ft 430 kts 317°
2026-04-21 00:19 49.53965 14.26925 36663 ft 430 kts 318°
2026-04-21 00:19 49.58448 14.20889 36896 ft 431 kts 318°
2026-04-21 00:19 49.60701 14.17851 37025 ft 430 kts 318°
2026-04-21 00:20 49.62963 14.14797 37145 ft 430 kts 317°
2026-04-21 00:20 49.65140 14.11637 37262 ft 430 kts 313°
2026-04-21 00:20 49.67116 14.08185 37361 ft 429 kts 310°
2026-04-21 00:21 49.71034 14.01192 37530 ft 430 kts 310°
2026-04-21 00:21 49.73003 13.97693 37648 ft 430 kts 310°
2026-04-21 00:21 49.74963 13.94200 37742 ft 430 kts 310°
2026-04-21 00:22 49.78855 13.87234 37933 ft 430 kts 310°
2026-04-21 00:22 49.82762 13.80211 38110 ft 430 kts 310°
2026-04-21 00:23 49.86676 13.73161 38112 ft 430 kts 310°
2026-04-21 00:23 49.90563 13.66138 38110 ft 432 kts 310°
2026-04-21 00:24 49.94470 13.59063 38110 ft 431 kts 310°
2026-04-21 00:24 49.98373 13.51973 38110 ft 431 kts 310°
2026-04-21 00:25 50.02268 13.44880 38112 ft 431 kts 310°
2026-04-21 00:25 50.06161 13.37769 38114 ft 432 kts 310°
2026-04-21 00:26 50.09918 13.30475 38119 ft 432 kts 304°
2026-04-21 00:26 50.13288 13.22792 38120 ft 432 kts 304°
2026-04-21 00:27 50.16705 13.15071 38123 ft 432 kts 304°
2026-04-21 00:27 50.20115 13.07323 38111 ft 432 kts 304°
2026-04-21 00:28 50.23514 12.99562 38112 ft 433 kts 304°
2026-04-21 00:28 50.26910 12.91785 38109 ft 433 kts 304°
2026-04-21 00:29 50.30298 12.84000 38114 ft 433 kts 304°
2026-04-21 00:29 50.33682 12.76203 38118 ft 432 kts 304°
2026-04-21 00:30 50.37058 12.68402 38125 ft 432 kts 304°
2026-04-21 00:30 50.40674 12.60954 38133 ft 432 kts 312°
2026-04-21 00:31 50.44781 12.54066 38126 ft 432 kts 312°
2026-04-21 00:31 50.48858 12.47169 38135 ft 432 kts 312°
2026-04-21 00:32 50.52945 12.40249 38134 ft 432 kts 312°
2026-04-21 00:32 50.57038 12.33308 38138 ft 432 kts 312°
2026-04-21 00:33 50.61126 12.26358 38141 ft 432 kts 312°
2026-04-21 00:33 50.65213 12.19389 38136 ft 433 kts 312°
2026-04-21 00:34 50.69270 12.12454 38142 ft 433 kts 312°
2026-04-21 00:34 50.73355 12.05448 38150 ft 434 kts 312°
2026-04-21 00:35 50.77435 11.98435 38163 ft 434 kts 312°
2026-04-21 00:35 50.81526 11.91382 38164 ft 434 kts 312°
2026-04-21 00:36 50.85605 11.84332 38178 ft 435 kts 312°
2026-04-21 00:36 50.89683 11.77262 38178 ft 435 kts 312°
2026-04-21 00:37 50.93758 11.70177 38187 ft 435 kts 312°
2026-04-21 00:37 50.97810 11.63114 38189 ft 435 kts 312°
2026-04-21 00:38 51.01890 11.55981 38189 ft 436 kts 312°
2026-04-21 00:38 51.05966 11.48835 38192 ft 436 kts 312°
2026-04-21 00:39 51.10036 11.41678 38190 ft 436 kts 312°
2026-04-21 00:39 51.14105 11.34504 38189 ft 436 kts 312°
2026-04-21 00:40 51.18166 11.27323 38195 ft 436 kts 312°
2026-04-21 00:40 51.22193 11.20183 38192 ft 436 kts 312°
2026-04-21 00:41 51.26253 11.12963 38191 ft 436 kts 312°
2026-04-21 00:41 51.30304 11.05738 38188 ft 436 kts 312°
2026-04-21 00:42 51.34350 10.98502 38191 ft 436 kts 311°
2026-04-21 00:42 51.38339 10.91349 38195 ft 436 kts 311°
2026-04-21 00:43 51.42382 10.84076 38202 ft 437 kts 311°
2026-04-21 00:43 51.45737 10.78026 38209 ft 437 kts 311°
2026-04-21 00:44 51.50476 10.69580 38204 ft 437 kts 316°
2026-04-21 00:44 51.54471 10.64521 38207 ft 437 kts 328°
2026-04-21 00:45 51.59985 10.60427 38201 ft 438 kts 342°
2026-04-21 00:45 51.62867 10.59011 38204 ft 438 kts 342°
2026-04-21 00:45 51.68697 10.56100 38207 ft 439 kts 342°
2026-04-21 00:46 51.74542 10.53176 38216 ft 439 kts 342°
2026-04-21 00:46 51.80393 10.50250 38223 ft 440 kts 342°
2026-04-21 00:47 51.86254 10.47311 38226 ft 441 kts 342°
2026-04-21 00:47 51.92122 10.44362 38243 ft 441 kts 342°
2026-04-21 00:48 51.97988 10.41406 38240 ft 442 kts 342°
2026-04-21 00:48 52.03830 10.38454 38238 ft 441 kts 342°
2026-04-21 00:49 52.09684 10.35485 38231 ft 440 kts 342°
2026-04-21 00:49 52.15549 10.32505 38241 ft 441 kts 342°
2026-04-21 00:50 52.21412 10.29518 38243 ft 441 kts 342°
2026-04-21 00:50 52.27229 10.26546 38249 ft 441 kts 342°
2026-04-21 00:51 52.33096 10.23539 38259 ft 441 kts 342°
2026-04-21 00:51 52.38963 10.20524 38264 ft 441 kts 342°
2026-04-21 00:52 52.44814 10.17509 38268 ft 441 kts 342°
2026-04-21 00:52 52.50669 10.14484 38271 ft 441 kts 342°
2026-04-21 00:53 52.56503 10.11461 38271 ft 441 kts 342°
2026-04-21 00:53 52.62357 10.08419 38270 ft 441 kts 342°
2026-04-21 00:54 52.68218 10.05365 38254 ft 441 kts 342°
2026-04-21 00:54 52.74075 10.02305 38267 ft 441 kts 342°
2026-04-21 00:55 52.79925 9.99239 38263 ft 441 kts 342°
2026-04-21 00:55 52.85740 9.96183 38265 ft 441 kts 342°
2026-04-21 00:56 52.91598 9.93096 38264 ft 441 kts 342°
2026-04-21 00:56 52.97461 9.89997 38267 ft 441 kts 342°
2026-04-21 00:57 53.03278 9.86914 38268 ft 441 kts 342°
2026-04-21 00:57 53.09140 9.83799 38275 ft 441 kts 342°
2026-04-21 00:58 53.14992 9.80679 38289 ft 441 kts 342°
2026-04-21 00:58 53.20840 9.77553 38294 ft 441 kts 342°
2026-04-21 00:59 53.26690 9.74417 38294 ft 441 kts 342°
2026-04-21 00:59 53.32502 9.71293 38294 ft 441 kts 342°
2026-04-21 01:00 53.38353 9.68137 38298 ft 441 kts 342°
2026-04-21 01:00 53.44203 9.64974 38300 ft 442 kts 342°
2026-04-21 01:01 53.50051 9.61802 38299 ft 442 kts 342°
2026-04-21 01:01 53.55906 9.58618 38315 ft 442 kts 342°
2026-04-21 01:02 53.61766 9.55422 38317 ft 442 kts 342°
2026-04-21 01:02 53.67616 9.52220 38314 ft 442 kts 342°
2026-04-21 01:03 53.73469 9.49009 38313 ft 442 kts 342°
2026-04-21 01:03 53.79341 9.45777 38318 ft 442 kts 342°
2026-04-21 01:04 53.85159 9.42567 38319 ft 442 kts 342°
2026-04-21 01:04 53.91011 9.39327 38320 ft 443 kts 342°
2026-04-21 01:05 53.96876 9.36071 38318 ft 443 kts 342°
2026-04-21 01:05 54.02741 9.32805 38324 ft 443 kts 342°
2026-04-21 01:06 54.08602 9.29532 38330 ft 444 kts 342°
2026-04-21 01:06 54.14477 9.26241 38333 ft 444 kts 343°
2026-04-21 01:07 54.20319 9.22957 38351 ft 444 kts 343°
2026-04-21 01:07 54.26193 9.19648 38350 ft 444 kts 343°
2026-04-21 01:08 54.32069 9.16377 38364 ft 444 kts 346°
2026-04-21 01:08 54.38132 9.14474 38365 ft 442 kts 356°
2026-04-21 01:09 54.44278 9.14460 38368 ft 441 kts
2026-04-21 01:09 54.50375 9.15164 38367 ft 441 kts
2026-04-21 01:10 54.56512 9.15865 38369 ft 441 kts
2026-04-21 01:10 54.62639 9.16595 38370 ft 441 kts
2026-04-21 01:11 54.68769 9.17333 38375 ft 441 kts
2026-04-21 01:11 54.74910 9.18078 38367 ft 442 kts
2026-04-21 01:12 54.81004 9.18680 38369 ft 442 kts 359°
2026-04-21 01:12 54.87031 9.16727 38364 ft 444 kts 341°
2026-04-21 01:13 54.92484 9.11598 38365 ft 447 kts 327°
2026-04-21 01:13 54.97125 9.06125 38373 ft 447 kts 328°
2026-04-21 01:14 55.02282 9.00046 38388 ft 448 kts 328°
2026-04-21 01:14 55.07409 8.93965 38397 ft 448 kts 327°
2026-04-21 01:15 55.12601 8.87780 38395 ft 449 kts 327°
2026-04-21 01:15 55.17736 8.81643 38389 ft 450 kts 327°
2026-04-21 01:16 55.22904 8.75448 38398 ft 450 kts 327°
2026-04-21 01:16 55.28074 8.69229 38415 ft 451 kts 327°
2026-04-21 01:17 55.33241 8.62995 38427 ft 451 kts 327°
2026-04-21 01:17 55.38408 8.56741 38422 ft 449 kts 327°
2026-04-21 01:18 55.43529 8.50525 38427 ft 450 kts 327°
2026-04-21 01:18 55.48681 8.44252 38428 ft 450 kts 327°
2026-04-21 01:19 55.53836 8.37950 38404 ft 451 kts 327°
2026-04-21 01:19 55.59031 8.31712 38403 ft 450 kts 331°
2026-04-21 01:20 55.64626 8.26867 38409 ft 447 kts 339°
2026-04-21 01:20 55.70340 8.22622 38407 ft 447 kts 339°
2026-04-21 01:21 55.76089 8.18311 38409 ft 447 kts 339°
2026-04-21 01:21 55.81830 8.14018 38408 ft 447 kts 339°
2026-04-21 01:22 55.87517 8.09761 38414 ft 447 kts 339°
2026-04-21 01:22 55.93268 8.05445 38414 ft 447 kts 339°
2026-04-21 01:23 55.99014 8.01122 38415 ft 447 kts 339°
2026-04-21 01:23 56.04716 7.96816 38418 ft 447 kts 339°
2026-04-21 01:24 56.10446 7.92476 38423 ft 447 kts 339°
2026-04-21 01:24 56.16183 7.88115 38425 ft 448 kts 339°
2026-04-21 01:25 56.21928 7.83734 38429 ft 448 kts 339°
2026-04-21 01:25 56.27630 7.79372 38430 ft 448 kts 339°
2026-04-21 01:26 56.33368 7.74967 38427 ft 448 kts 339°
2026-04-21 01:26 56.39108 7.70547 38437 ft 448 kts 339°
2026-04-21 01:27 56.44860 7.66103 38436 ft 449 kts 339°
2026-04-21 01:27 56.50573 7.61674 38452 ft 449 kts 339°
2026-04-21 01:28 56.56322 7.57203 38453 ft 449 kts 339°
2026-04-21 01:28 56.62069 7.52719 38428 ft 448 kts 339°
2026-04-21 01:29 56.66827 7.48994 38453 ft 448 kts 339°
2026-04-21 01:29 56.72548 7.44503 38448 ft 448 kts 338°
2026-04-21 01:30 56.79208 7.39255 38453 ft 448 kts 338°
2026-04-21 01:30 56.84003 7.35465 38465 ft 448 kts 338°
2026-04-21 01:31 56.89685 7.30959 38457 ft 448 kts 338°
2026-04-21 01:31 56.95402 7.26410 38458 ft 448 kts 338°
2026-04-21 01:32 57.00903 7.20952 38469 ft 451 kts 328°
2026-04-21 01:32 57.05927 7.14002 38459 ft 452 kts 323°
2026-04-21 01:33 57.10842 7.06877 38468 ft 452 kts 324°
2026-04-21 01:33 57.15790 6.99681 38463 ft 453 kts 323°
2026-04-21 01:34 57.20725 6.92453 38463 ft 453 kts 323°
2026-04-21 01:34 57.25661 6.85191 38469 ft 454 kts 323°
2026-04-21 01:35 57.30597 6.77892 38473 ft 454 kts 323°
2026-04-21 01:35 57.35535 6.70561 38482 ft 455 kts 323°
2026-04-21 01:36 57.40441 6.63250 38485 ft 455 kts 323°
2026-04-21 01:36 57.45379 6.55867 38481 ft 456 kts 323°
2026-04-21 01:37 57.50318 6.48454 38475 ft 456 kts 323°
2026-04-21 01:37 57.55261 6.41010 38483 ft 457 kts 323°
2026-04-21 01:38 57.60194 6.33553 38487 ft 457 kts 323°
2026-04-21 01:38 57.65139 6.26051 38491 ft 458 kts 323°
2026-04-21 01:39 57.70053 6.18570 38496 ft 458 kts 323°
2026-04-21 01:39 57.74992 6.11023 38498 ft 458 kts 323°
2026-04-21 01:40 57.79930 6.03451 38493 ft 456 kts 322°
2026-04-21 01:40 57.84805 5.95946 38498 ft 453 kts 322°
2026-04-21 01:41 57.89694 5.88395 38500 ft 454 kts 322°
2026-04-21 01:41 57.94539 5.80883 38503 ft 454 kts 322°
2026-04-21 01:42 57.99415 5.73296 38503 ft 454 kts 322°
2026-04-21 01:42 58.04307 5.65656 38506 ft 454 kts 322°
2026-04-21 01:43 58.09143 5.58075 38505 ft 454 kts 322°
2026-04-21 01:43 58.13999 5.50436 38511 ft 454 kts 322°
2026-04-21 01:44 58.18853 5.42772 38512 ft 454 kts 322°
2026-04-21 01:44 58.23715 5.35068 38511 ft 454 kts 322°
2026-04-21 01:45 58.28532 5.27405 38518 ft 454 kts 322°
2026-04-21 01:45 58.33380 5.19665 38520 ft 454 kts 322°
2026-04-21 01:46 58.38216 5.11914 38509 ft 454 kts 322°
2026-04-21 01:46 58.43050 5.04140 38514 ft 454 kts 322°
2026-04-21 01:47 58.47879 4.96344 38511 ft 454 kts 322°
2026-04-21 01:47 58.52668 4.88583 38515 ft 454 kts 322°
2026-04-21 01:48 58.57487 4.80746 38516 ft 454 kts 321°
2026-04-21 01:48 58.62303 4.72885 38518 ft 455 kts 321°
2026-04-21 01:49 58.67123 4.64986 38519 ft 455 kts 321°
2026-04-21 01:49 58.71937 4.57067 38521 ft 455 kts 321°
2026-04-21 01:50 58.76715 4.49179 38531 ft 455 kts 321°
2026-04-21 01:50 58.81527 4.41203 38529 ft 456 kts 321°
2026-04-21 01:51 58.86339 4.33198 38533 ft 456 kts 321°
2026-04-21 01:51 58.91144 4.25173 38537 ft 456 kts 321°
2026-04-21 01:52 58.98311 4.13148 38539 ft 456 kts 321°
2026-04-21 01:53 59.03104 4.05067 38541 ft 456 kts 321°
2026-04-21 01:53 59.07885 3.96975 38540 ft 456 kts 321°
2026-04-21 01:54 59.12678 3.88831 38540 ft 456 kts 321°
2026-04-21 01:54 59.17454 3.80685 38540 ft 456 kts 321°
2026-04-21 01:55 59.22197 3.72565 38545 ft 455 kts 321°
2026-04-21 01:55 59.26958 3.64382 38530 ft 455 kts 320°
2026-04-21 01:56 59.31704 3.56193 38542 ft 455 kts 320°
2026-04-21 01:56 59.36444 3.47982 38542 ft 455 kts 320°
2026-04-21 01:57 59.41161 3.39781 38553 ft 454 kts 320°
2026-04-21 01:57 59.45897 3.31513 38553 ft 454 kts 320°
2026-04-21 01:58 59.50614 3.23247 38537 ft 454 kts 320°
2026-04-21 01:58 59.55329 3.14950 38544 ft 454 kts 320°
2026-04-21 01:59 59.60011 3.06682 38545 ft 453 kts 320°
2026-04-21 01:59 59.64711 2.98348 38548 ft 453 kts 320°
2026-04-21 02:00 59.69401 2.90000 38555 ft 453 kts 320°
2026-04-21 02:00 59.74083 2.81633 38553 ft 453 kts 320°
2026-04-21 02:01 59.78764 2.73233 38548 ft 453 kts 320°
2026-04-21 02:01 59.83445 2.64802 38556 ft 453 kts 320°
2026-04-21 02:02 59.88090 2.56401 38557 ft 453 kts 320°
2026-04-21 02:02 59.92765 2.47913 38560 ft 453 kts 320°
2026-04-21 02:03 59.97433 2.39404 38561 ft 454 kts 320°
2026-04-21 02:03 60.02056 2.30945 38568 ft 454 kts 320°
2026-04-21 02:04 60.06723 2.22368 38571 ft 454 kts 320°
2026-04-21 02:04 60.11379 2.13780 38573 ft 455 kts 319°
2026-04-21 02:05 60.16032 2.05160 38569 ft 455 kts 319°
2026-04-21 02:05 60.20667 1.96539 38578 ft 453 kts 320°
2026-04-21 02:06 60.25261 1.87962 38578 ft 453 kts 319°
2026-04-21 02:06 60.29889 1.79287 38580 ft 453 kts 319°
2026-04-21 02:07 60.34497 1.70612 38579 ft 453 kts 319°
2026-04-21 02:07 60.39085 1.61940 38582 ft 453 kts 319°
2026-04-21 02:08 60.43679 1.53221 38591 ft 453 kts 319°
2026-04-21 02:08 60.48267 1.44479 38587 ft 452 kts 319°
2026-04-21 02:09 60.52845 1.35721 38591 ft 452 kts 319°
2026-04-21 02:09 60.57413 1.26945 38591 ft 452 kts 319°
2026-04-21 02:10 60.61945 1.18204 38585 ft 452 kts 319°
2026-04-21 02:10 60.66524 1.09336 38597 ft 452 kts 319°
2026-04-21 02:11 60.71073 1.00489 38604 ft 452 kts 319°
2026-04-21 02:11 60.75628 0.91593 38589 ft 452 kts 319°
2026-04-21 02:12 60.80169 0.82689 38603 ft 452 kts 319°
2026-04-21 02:12 60.84683 0.73802 38615 ft 452 kts 319°
2026-04-21 02:13 60.89218 0.64834 38613 ft 452 kts 319°
2026-04-21 02:13 60.93748 0.55839 38611 ft 452 kts 319°
2026-04-21 02:14 60.98272 0.46818 38621 ft 453 kts 319°
2026-04-21 02:14 61.02028 0.39301 38621 ft 453 kts 319°
2026-04-21 02:15 61.07275 0.28762 38622 ft 452 kts 319°
2026-04-21 02:15 61.11782 0.19686 38631 ft 453 kts 319°
2026-04-21 02:16 61.16296 0.10560 38632 ft 453 kts 319°
2026-04-21 02:16 61.19799 0.02468 38630 ft 456 kts 310°
2026-04-21 02:17 61.23326 -0.08511 38626 ft 459 kts 302°
2026-04-21 02:17 61.26135 -0.20487 38634 ft 463 kts 298°
2026-04-21 02:18 61.28939 -0.32580 38629 ft 462 kts 298°
2026-04-21 02:18 61.31696 -0.44509 38628 ft 461 kts 298°
2026-04-21 02:19 61.34462 -0.56556 38632 ft 461 kts 298°
2026-04-21 02:19 61.37215 -0.68621 38637 ft 461 kts 298°
2026-04-21 02:20 61.39957 -0.80709 38634 ft 461 kts 298°
2026-04-21 02:20 61.42682 -0.92816 38637 ft 461 kts 298°
2026-04-21 02:21 61.45390 -1.04942 38636 ft 461 kts 298°
2026-04-21 02:21 61.48091 -1.17109 38646 ft 461 kts 298°
2026-04-21 02:22 61.50779 -1.29293 38635 ft 461 kts 298°
2026-04-21 02:22 61.53453 -1.41480 38623 ft 461 kts 298°
2026-04-21 02:23 61.56122 -1.53721 38628 ft 461 kts 298°
2026-04-21 02:23 61.58765 -1.65904 38639 ft 461 kts 298°
2026-04-21 02:24 61.61413 -1.78187 38654 ft 461 kts 298°
2026-04-21 02:24 61.64048 -1.90478 38659 ft 461 kts 297°
2026-04-21 02:25 61.66673 -2.02800 38661 ft 461 kts 297°
2026-04-21 02:25 61.69290 -2.15153 38644 ft 461 kts 298°
2026-04-21 02:26 61.71880 -2.27454 38657 ft 462 kts 298°
2026-04-21 02:26 61.74476 -2.39852 38659 ft 462 kts 297°
2026-04-21 02:27 61.77064 -2.52294 38660 ft 462 kts 297°
2026-04-21 02:27 61.79639 -2.64745 38666 ft 463 kts 297°
2026-04-21 02:28 61.82205 -2.77228 38667 ft 463 kts 297°
2026-04-21 02:28 61.84750 -2.89687 38659 ft 463 kts 297°
2026-04-21 02:29 61.87297 -3.02231 38659 ft 463 kts 297°
2026-04-21 02:29 61.89832 -3.14793 38669 ft 463 kts 297°
2026-04-21 02:30 61.92353 -3.27358 38670 ft 463 kts 297°
2026-04-21 02:30 61.94867 -3.39971 38673 ft 463 kts 297°
2026-04-21 02:31 61.97369 -3.52605 38679 ft 464 kts 297°
2026-04-21 02:31 61.99860 -3.65258 38673 ft 464 kts 297°
2026-04-21 02:32 62.02330 -3.77884 38673 ft 464 kts 297°
2026-04-21 02:32 62.04801 -3.90598 38676 ft 464 kts 297°
2026-04-21 02:33 62.07260 -4.03331 38678 ft 464 kts 297°
2026-04-21 02:33 62.09713 -4.16113 38682 ft 465 kts 297°
2026-04-21 02:34 62.12138 -4.28829 38680 ft 465 kts 296°
2026-04-21 02:34 62.14581 -4.41721 38667 ft 465 kts 297°
2026-04-21 02:35 62.16978 -4.54474 38685 ft 464 kts 297°
2026-04-21 02:35 62.19381 -4.67314 38687 ft 464 kts 297°
2026-04-21 02:36 62.21775 -4.80192 38692 ft 464 kts 297°
2026-04-21 02:36 62.24137 -4.92989 38691 ft 464 kts 297°
2026-04-21 02:37 62.26504 -5.05894 38691 ft 464 kts 297°
2026-04-21 02:37 62.28851 -5.18789 38683 ft 461 kts 297°
2026-04-21 02:38 62.31178 -5.31645 38688 ft 462 kts 297°
2026-04-21 02:38 62.33478 -5.44441 38688 ft 462 kts 296°
2026-04-21 02:39 62.35782 -5.57342 38691 ft 462 kts 296°
2026-04-21 02:39 62.38074 -5.70270 38691 ft 462 kts 296°
2026-04-21 02:40 62.40354 -5.83211 38675 ft 462 kts 296°
2026-04-21 02:40 62.42613 -5.96130 38696 ft 458 kts 296°
2026-04-21 02:41 62.44856 -6.09040 38683 ft 459 kts 296°
2026-04-21 02:41 62.47087 -6.21966 38687 ft 459 kts 296°
2026-04-21 02:42 62.49307 -6.34919 38688 ft 459 kts 295°
2026-04-21 02:42 62.51517 -6.47899 38700 ft 459 kts 295°
2026-04-21 02:43 62.53700 -6.60816 38696 ft 459 kts 295°
2026-04-21 02:43 62.55887 -6.73840 38683 ft 459 kts 295°
2026-04-21 02:44 62.58061 -6.86881 38687 ft 460 kts 295°
2026-04-21 02:44 62.60228 -6.99972 38692 ft 460 kts 295°
2026-04-21 02:45 62.62382 -7.13073 38700 ft 461 kts 295°
2026-04-21 02:45 62.64513 -7.26131 38684 ft 461 kts 295°
2026-04-21 02:46 62.66646 -7.39294 38699 ft 461 kts 294°
2026-04-21 02:46 62.68765 -7.52473 38700 ft 461 kts 294°
2026-04-21 02:47 62.70877 -7.65698 38701 ft 462 kts 294°
2026-04-21 02:47 62.72979 -7.78958 38706 ft 463 kts 294°
2026-04-21 02:48 62.75057 -7.92161 38710 ft 463 kts 294°
2026-04-21 02:48 62.77136 -8.05478 38705 ft 463 kts 294°
2026-04-21 02:49 62.79204 -8.18817 38722 ft 464 kts 294°
2026-04-21 02:49 62.81260 -8.32189 38706 ft 462 kts 294°
2026-04-21 02:50 62.83296 -8.45520 38705 ft 462 kts 293°
2026-04-21 02:50 62.85309 -8.58804 38701 ft 462 kts 293°
2026-04-21 02:51 62.87322 -8.72193 38711 ft 459 kts 293°
2026-04-21 02:51 62.89301 -8.85461 38706 ft 458 kts 293°
2026-04-21 02:52 62.91276 -8.98787 38708 ft 459 kts 293°
2026-04-21 02:52 62.93217 -9.12005 38707 ft 456 kts 293°
2026-04-21 02:53 62.95156 -9.25294 38712 ft 457 kts 293°
2026-04-21 02:53 62.97087 -9.38634 38712 ft 457 kts 293°
2026-04-21 02:54 62.98990 -9.51894 38713 ft 458 kts 292°
2026-04-21 02:54 63.00895 -9.65269 38714 ft 458 kts 292°
2026-04-21 02:55 63.02789 -9.78670 38715 ft 458 kts 292°
2026-04-21 02:55 63.04669 -9.92090 38724 ft 458 kts 292°
2026-04-21 02:56 63.06538 -10.05523 38715 ft 458 kts 292°
2026-04-21 02:56 63.09280 -10.25468 38712 ft 449 kts 292°
2026-04-21 02:57 63.11087 -10.38709 38718 ft 452 kts 292°
2026-04-21 02:57 63.12887 -10.52023 38720 ft 451 kts 292°
2026-04-21 02:58 63.14673 -10.65342 38714 ft 451 kts 292°
2026-04-21 02:58 63.16427 -10.78539 38719 ft 450 kts 292°
2026-04-21 02:59 63.18183 -10.91852 38717 ft 450 kts 291°
2026-04-21 02:59 63.19926 -11.05176 38721 ft 450 kts 291°
2026-04-21 03:00 63.21658 -11.18531 38722 ft 450 kts 291°
2026-04-21 03:00 63.23376 -11.31894 38721 ft 450 kts 291°
2026-04-21 03:01 63.25082 -11.45273 38698 ft 451 kts 291°
2026-04-21 03:01 63.26488 -11.56387 38725 ft 450 kts 291°
2026-04-21 03:02 63.28162 -11.69736 38720 ft 445 kts 291°
2026-04-21 03:02 63.29813 -11.83002 38724 ft 446 kts 290°
2026-04-21 03:03 63.31458 -11.96323 38719 ft 446 kts 290°
2026-04-21 03:03 63.33088 -12.09657 38721 ft 446 kts 290°
2026-04-21 03:04 63.34707 -12.23009 38724 ft 446 kts 290°
2026-04-21 03:04 63.36302 -12.36279 38728 ft 446 kts 290°
2026-04-21 03:05 63.37895 -12.49660 38724 ft 446 kts 290°
2026-04-21 03:05 63.39478 -12.63074 38729 ft 446 kts 290°
2026-04-21 03:06 63.41045 -12.76468 38726 ft 447 kts 290°
2026-04-21 03:06 63.42607 -12.89943 38722 ft 450 kts 289°
2026-04-21 03:07 63.44178 -13.03603 38726 ft 457 kts 289°
2026-04-21 03:07 63.45752 -13.17440 38724 ft 461 kts 289°
2026-04-21 03:08 63.47312 -13.31292 38722 ft 463 kts 289°
2026-04-21 03:08 63.48876 -13.45328 38720 ft 464 kts 289°
2026-04-21 03:09 63.50426 -13.59364 38720 ft 464 kts 288°
2026-04-21 03:09 63.51962 -13.73407 38718 ft 464 kts 288°
2026-04-21 03:10 63.53485 -13.87475 38715 ft 464 kts 288°
2026-04-21 03:10 63.54983 -14.01461 38715 ft 463 kts 288°
2026-04-21 03:11 63.56474 -14.15515 38713 ft 463 kts 288°
2026-04-21 03:11 63.57955 -14.29619 38713 ft 463 kts 288°
2026-04-21 03:12 63.59421 -14.43724 38715 ft 463 kts 288°
2026-04-21 03:12 63.60874 -14.57861 38715 ft 464 kts 287°
2026-04-21 03:13 63.62299 -14.71876 38709 ft 459 kts 287°
2026-04-21 03:13 63.63706 -14.85845 38711 ft 459 kts 287°
2026-04-21 03:14 63.65105 -14.99881 38714 ft 458 kts 287°
2026-04-21 03:14 63.66485 -15.13890 38708 ft 458 kts 287°
2026-04-21 03:15 63.67852 -15.27919 38708 ft 459 kts 286°
2026-04-21 03:15 63.69208 -15.41987 38712 ft 459 kts 286°
2026-04-21 03:16 63.70542 -15.55985 38708 ft 459 kts 286°
2026-04-21 03:16 63.71871 -15.70076 38692 ft 459 kts 286°
2026-04-21 03:17 63.73186 -15.84174 38710 ft 459 kts 285°
2026-04-21 03:17 63.74497 -15.98303 38706 ft 459 kts 285°
2026-04-21 03:18 63.75798 -16.12447 38709 ft 460 kts 285°
2026-04-21 03:18 63.77087 -16.26607 38709 ft 460 kts 285°
2026-04-21 03:19 63.78355 -16.40695 38707 ft 459 kts 285°
2026-04-21 03:19 63.79562 -16.54927 38705 ft 461 kts 283°
2026-04-21 03:20 63.80535 -16.69296 38703 ft 461 kts 282°
2026-04-21 03:20 63.81264 -16.83694 38707 ft 462 kts 280°
2026-04-21 03:21 63.82024 -16.98137 38706 ft 462 kts 281°
2026-04-21 03:21 63.82760 -17.12601 38712 ft 462 kts 280°
2026-04-21 03:22 63.83457 -17.27082 38712 ft 463 kts 280°
2026-04-21 03:22 63.84135 -17.41603 38712 ft 462 kts 279°
2026-04-21 03:23 63.84797 -17.56076 38717 ft 462 kts 279°
2026-04-21 03:23 63.85444 -17.70567 38718 ft 462 kts 279°
2026-04-21 03:24 63.86074 -17.84981 38720 ft 462 kts 279°
2026-04-21 03:24 63.86694 -17.99505 38719 ft 460 kts 279°
2026-04-21 03:25 63.87294 -18.13919 38734 ft 459 kts 278°
2026-04-21 03:25 63.87881 -18.28364 38516 ft 456 kts 278°
2026-04-21 03:26 63.88166 -18.35532 37736 ft 453 kts 278°
2026-04-21 03:26 63.88443 -18.42571 36720 ft 453 kts 278°
2026-04-21 03:26 63.88720 -18.49703 35666 ft 455 kts 278°
2026-04-21 03:26 63.88995 -18.56850 35009 ft 456 kts 278°
2026-04-21 03:27 63.89268 -18.64044 34275 ft 459 kts 278°
2026-04-21 03:27 63.89539 -18.71293 33561 ft 461 kts 277°
2026-04-21 03:27 63.89807 -18.78542 32836 ft 460 kts 277°
2026-04-21 03:27 63.90070 -18.85794 32039 ft 459 kts 277°
2026-04-21 03:28 63.90328 -18.93000 31349 ft 457 kts 277°
2026-04-21 03:28 63.90578 -19.00138 30850 ft 450 kts 277°
2026-04-21 03:28 63.90823 -19.07179 30245 ft 443 kts 277°
2026-04-21 03:28 63.91062 -19.14096 29715 ft 436 kts 277°
2026-04-21 03:29 63.91295 -19.20921 29192 ft 430 kts 276°
2026-04-21 03:29 63.91521 -19.27633 28669 ft 423 kts 276°
2026-04-21 03:29 63.91741 -19.34276 28166 ft 418 kts 276°
2026-04-21 03:29 63.91952 -19.40780 27648 ft 413 kts 276°
2026-04-21 03:30 63.92159 -19.47245 27141 ft 408 kts 276°
2026-04-21 03:30 63.92362 -19.53644 26644 ft 404 kts 276°
2026-04-21 03:30 63.92559 -19.59993 26150 ft 400 kts 276°
2026-04-21 03:30 63.92751 -19.66270 25661 ft 396 kts 275°
2026-04-21 03:31 63.92940 -19.72490 25165 ft 393 kts 275°
2026-04-21 03:31 63.93125 -19.78666 24674 ft 390 kts 275°
2026-04-21 03:31 63.93303 -19.84728 24173 ft 387 kts 275°
2026-04-21 03:31 63.93480 -19.90813 23664 ft 383 kts 275°
2026-04-21 03:32 63.93652 -19.96823 23192 ft 378 kts 274°
2026-04-21 03:32 63.93819 -20.02753 22720 ft 373 kts 274°
2026-04-21 03:32 63.93980 -20.08611 22251 ft 369 kts 274°
2026-04-21 03:32 63.94140 -20.14458 21777 ft 381 kts 274°
2026-04-21 03:33 63.94309 -20.20660 21278 ft 401 kts 274°
2026-04-21 03:33 63.94481 -20.27067 20763 ft 408 kts 274°
2026-04-21 03:33 63.94653 -20.33521 20247 ft 408 kts 274°
2026-04-21 03:33 63.94765 -20.39946 19730 ft 404 kts 273°
2026-04-21 03:34 63.94929 -20.46285 19216 ft 399 kts 274°
2026-04-21 03:34 63.95114 -20.52490 18674 ft 394 kts 275°
2026-04-21 03:34 63.95295 -20.58653 18177 ft 387 kts 274°
2026-04-21 03:34 63.95463 -20.64708 17681 ft 381 kts 274°
2026-04-21 03:35 63.95620 -20.70684 17193 ft 375 kts 274°
2026-04-21 03:35 63.95768 -20.76572 16724 ft 370 kts 274°
2026-04-21 03:35 63.95910 -20.82382 16244 ft 365 kts 273°
2026-04-21 03:35 63.96047 -20.88110 15780 ft 361 kts 273°
2026-04-21 03:36 63.96181 -20.93788 15323 ft 357 kts 273°
2026-04-21 03:36 63.96312 -20.99395 14869 ft 353 kts 272°
2026-04-21 03:36 63.96439 -21.04962 14406 ft 351 kts 272°
2026-04-21 03:36 63.96563 -21.10474 13959 ft 346 kts 272°
2026-04-21 03:37 63.96684 -21.15956 13755 ft 353 kts 272°
2026-04-21 03:37 63.96806 -21.21580 13625 ft 355 kts 272°
2026-04-21 03:37 63.96926 -21.27218 12965 ft 357 kts 272°
2026-04-21 03:37 63.97044 -21.32851 12559 ft 352 kts 272°
2026-04-21 03:38 63.97157 -21.38344 12253 ft 343 kts 272°
2026-04-21 03:38 63.97279 -21.43673 11941 ft 342 kts 275°
2026-04-21 03:38 63.97759 -21.48996 11597 ft 343 kts 288°
2026-04-21 03:38 63.98679 -21.53959 11206 ft 338 kts 295°
2026-04-21 03:39 63.99667 -21.58766 10943 ft 329 kts 295°
2026-04-21 03:39 64.00609 -21.63398 10809 ft 314 kts 294°
2026-04-21 03:39 64.01494 -21.67777 10618 ft 295 kts 294°
2026-04-21 03:39 64.02343 -21.71989 10049 ft 291 kts 294°
2026-04-21 03:40 64.03183 -21.76172 9496 ft 289 kts 294°
2026-04-21 03:40 64.04013 -21.80318 9129 ft 286 kts 294°
2026-04-21 03:40 64.04831 -21.84413 8798 ft 281 kts 293°
2026-04-21 03:40 64.05636 -21.88445 8499 ft 278 kts 293°
2026-04-21 03:41 64.06439 -21.92476 8185 ft 279 kts 293°
2026-04-21 03:41 64.07227 -21.96440 7884 ft 275 kts 293°
2026-04-21 03:41 64.08013 -22.00397 7737 ft 275 kts 293°
2026-04-21 03:41 64.08803 -22.04387 7548 ft 275 kts 293°
2026-04-21 03:42 64.09594 -22.08386 7050 ft 277 kts 293°
2026-04-21 03:42 64.10384 -22.12391 6508 ft 275 kts 293°
2026-04-21 03:42 64.11167 -22.16362 5949 ft 273 kts 293°
2026-04-21 03:42 64.11943 -22.20311 5393 ft 270 kts 293°
2026-04-21 03:43 64.12700 -22.24169 5002 ft 262 kts 293°
2026-04-21 03:43 64.13452 -22.28012 4455 ft 264 kts 293°
2026-04-21 03:43 64.14194 -22.31815 4255 ft 257 kts 293°
2026-04-21 03:43 64.14907 -22.35470 4146 ft 245 kts 293°
2026-04-21 03:44 64.15578 -22.38915 4054 ft 234 kts 293°
2026-04-21 03:44 64.16048 -22.42363 3956 ft 221 kts 272°
2026-04-21 03:44 64.15828 -22.45697 3842 ft 207 kts 248°
2026-04-21 03:44 64.15331 -22.48706 3686 ft 196 kts 249°
2026-04-21 03:45 64.14865 -22.51630 3314 ft 195 kts 249°
2026-04-21 03:45 64.14405 -22.54546 2968 ft 195 kts 249°
2026-04-21 03:45 64.13944 -22.57456 2699 ft 193 kts 246°
2026-04-21 03:45 64.13129 -22.59776 2517 ft 183 kts 210°
2026-04-21 03:46 64.11998 -22.60531 2403 ft 162 kts 180°
2026-04-21 03:46 64.10932 -22.60503 2236 ft 146 kts 180°
2026-04-21 03:46 64.09934 -22.60518 2189 ft 149 kts 180°
2026-04-21 03:46 64.08912 -22.60518 2103 ft 145 kts 180°
2026-04-21 03:47 64.07900 -22.60521 1935 ft 146 kts 180°
2026-04-21 03:47 64.06891 -22.60523 1761 ft 145 kts 180°
2026-04-21 03:47 64.06224 -22.60524 1627 ft 145 kts 180°
2026-04-21 03:47 64.04878 -22.60527 1365 ft 145 kts 180°
2026-04-21 03:48 64.04208 -22.60528 1228 ft 145 kts 180°
2026-04-21 03:48 64.03198 -22.60530 1095 ft 145 kts 181°
2026-04-21 03:48 64.02189 -22.60532 877 ft 145 kts 180°
2026-04-21 03:48 64.01182 -22.60535 659 ft 144 kts 180°
2026-04-21 03:49 64.00177 -22.60537 440 ft 144 kts 180°
2026-04-21 03:49 63.99173 -22.60540 226 ft 143 kts 179°
2026-04-21 03:49 63.98282 -22.60539 173 ft 92 kts 180°
2026-04-21 03:49 63.97842 -22.60538 171 ft 55 kts 180°
2026-04-21 03:50 63.97491 -22.60548 172 ft 27 kts 198°
2026-04-21 03:50 63.97440 -22.60764 168 ft 16 kts 286°
2026-04-21 03:50 63.97443 -22.60795 167 ft 0 kts 286°
2026-04-21 03:51 63.97444 -22.60803 167 ft 3 kts 286°
2026-04-21 03:51 63.97458 -22.60895 166 ft 9 kts 298°
2026-04-21 03:51 63.97522 -22.60943 165 ft 11 kts 357°
2026-04-21 03:51 63.97604 -22.60941 167 ft 13 kts 360°
2026-04-21 03:52 63.97698 -22.60943 169 ft 14 kts 360°
2026-04-21 03:52 63.97804 -22.60941 169 ft 16 kts
2026-04-21 03:52 63.97928 -22.60940 169 ft 19 kts
2026-04-21 03:52 63.98071 -22.60940 167 ft 22 kts
2026-04-21 03:53 63.98236 -22.60939 164 ft 25 kts
2026-04-21 03:53 63.98417 -22.60936 165 ft 26 kts 359°
2026-04-21 03:53 63.98606 -22.60941 167 ft 28 kts 360°
2026-04-21 03:53 63.98805 -22.60940 165 ft 28 kts
2026-04-21 03:54 63.98979 -22.60938 170 ft 23 kts 360°
2026-04-21 03:54 63.99103 -22.60937 165 ft 16 kts
2026-04-21 03:54 63.99174 -22.61054 161 ft 14 kts 276°
2026-04-21 03:54 63.99173 -22.61290 156 ft 16 kts 270°
2026-04-21 03:55 63.99172 -22.61556 150 ft 18 kts 270°
2026-04-21 03:55 63.99173 -22.61851 143 ft 19 kts 272°
2026-04-21 03:55 63.99172 -22.62149 142 ft 16 kts 270°
2026-04-21 03:55 63.99189 -22.62298 142 ft 7 kts 327°
2026-04-21 03:56 63.99229 -22.62305 142 ft 5 kts
2026-04-21 03:56 63.99260 -22.62305 142 ft 4 kts 360°
2026-04-21 03:56 63.99283 -22.62305 142 ft 0 kts 360°
2026-04-21 03:56 63.99284 -22.62305 142 ft 0 kts 360°